Printer-friendly version

IAU Minor Planet Center

Minor Planet Center

MPEC 2000-W60: 2000 WS67

The following Minor Planet Electronic Circular may be linked-to from your own Web pages, but must not otherwise be redistributed electronically.


Read MPEC 2000-W59 Read MPEC 2000-W61


M.P.E.C. 2000-W60                                Issued 2000 Nov. 30, 01:54 UT

     The Minor Planet Electronic Circulars contain information on unusual
         minor planets and routine data on comets.  They are published
   on behalf of Commission 20 of the International Astronomical Union by the
          Minor Planet Center, Smithsonian Astrophysical Observatory,
                          Cambridge, MA 02138, U.S.A.

             Prepared using the Tamkin Foundation Computer Network

                              MPC@CFA.HARVARD.EDU
          URL http://cfa-www.harvard.edu/iau/mpc.html  ISSN 1523-6714

                                   2000 WS67

Observations:
     K00W67S* C2000 11 27.22661 04 09 58.39 +12 25 49.6          19.0        704
     K00W67S  C2000 11 27.24102 04 09 55.37 +12 25 56.6          19.4        704
     K00W67S  C2000 11 27.25544 04 09 52.52 +12 26 04.1          19.4        704
     K00W67S  C2000 11 27.26986 04 09 49.72 +12 26 10.7          19.0        704
     K00W67S  C2000 11 27.28429 04 09 46.85 +12 26 18.8          19.2        704
     K00W67S  C2000 11 28.37713 04 06 16.24 +12 34 42.2                      684
     K00W67S  C2000 11 28.37990 04 06 15.75 +12 34 42.9                      684
     K00W67S  C2000 11 29.29440 04 03 23.89 +12 41 39.3                      711
     K00W67S  C2000 11 29.30117 04 03 22.55 +12 41 42.3                      711
     K00W67S  C2000 11 29.30803 04 03 21.28 +12 41 45.4                      711
     K00W67S  C2000 11 29.30808 04 03 21.36 +12 41 45.1          19.3 R      853
     K00W67S  C2000 11 29.30943 04 03 21.10 +12 41 45.6          19.3 R      853
     K00W67S  C2000 11 29.31006 04 03 20.98 +12 41 45.9          19.3 R      853
     K00W67S  C2000 11 29.31519 04 03 19.97 +12 41 47.7          20.2        704
     K00W67S  C2000 11 29.33176 04 03 16.78 +12 41 55.4          19.4        704
     K00W67S  C2000 11 29.34904 04 03 13.54 +12 42 02.1          19.4        704
     K00W67S  C2000 11 29.36422 04 03 10.65 +12 42 10.2          19.7        704
     K00W67S  C2000 11 29.85249 04 01 40.99 +12 45 46.7          18.3 R      046
     K00W67S  C2000 11 29.85403 04 01 40.78 +12 45 45.6                      046
     K00W67S  C2000 11 29.85536 04 01 40.34 +12 45 47.2                      046
     K00W67S  C2000 11 29.85721 04 01 40.25 +12 45 47.0                      046
     K00W67S  C2000 11 29.85895 04 01 39.78 +12 45 49.4          18.1 R      046
     K00W67S  C2000 11 29.97850 04 01 17.48 +12 46 44.1                      557
     K00W67S  C2000 11 29.98042 04 01 17.15 +12 46 42.8                      557
     K00W67S  C2000 11 29.98429 04 01 16.42 +12 46 45.8                      557
     K00W67S  C2000 11 29.98816 04 01 15.72 +12 46 45.8                      557

Observer details:
046 Klet.  Observers M. Tichy, M. Kocer.  0.57-m f/5.2 reflector + CCD.
557 Ondrejov.  Observer P. Kusnirak.  0.65-m f/3.6 reflector + CCD.
684 Prescott.  Observer P. G. Comba.  0.46-m f/4.5 reflector + CCD.
704 Lincoln Laboratory ETS, New Mexico.  Observers M. Blythe, F. Shelly,
    M. Bezpalko, M. Elowitz, R. Huber, L. Manguso.  Measurers J. Stuart,
    R. Sayer, J. B. Evans, H. Viggh.  1.0-m f/2.15 reflector + CCD.
711 McDonald Observatory.  Observers J. G. Ries.  0.76-m  reflector + CCD.
853 Biosphere 2 Observatory.  Observer G. J. Garradd.  0.6-m f/8.1 reflector
    + CCD.

Orbital elements:
2000 WS67
Epoch 2000 Nov. 12.0 TT = JDT 2451860.5                 Spahr
M  70.06490              (2000.0)            P               Q
n   0.66172182     Peri.  198.33741     +0.01771530     +0.93974672
a   1.3042247      Node    73.80900     -0.86708935     +0.18446090
e   0.7103577      Incl.   20.82487     -0.49783755     -0.28783724
P   1.49           H   18.3           G   0.15
From 26 observations 2000 Nov. 27-29.

Ephemeris:
2000 WS67                a,e,i = 1.30, 0.71, 21                  q = 0.3778
Date    TT    R. A. (2000) Decl.     Delta      r     Elong.  Phase     V
2000 11 22    04 27.75   +11 43.4    0.701    1.679   167.8     7.1    19.2
2000 12 02    03 55.28   +13 01.6    0.777    1.752   167.2     7.2    19.5
2000 12 12    03 30.43   +14 08.4    0.886    1.819   153.1    14.2    20.1
2000 12 22    03 13.78   +15 09.1    1.019    1.880   139.6    19.8    20.7
2001 01 01    03 04.36   +16 08.2    1.172    1.935   127.6    23.7    21.2
2001 01 11    03 00.72   +17 08.3    1.337    1.986   116.8    26.2    21.6
2001 01 21    03 01.52   +18 10.1    1.510    2.031   107.1    27.6    22.0

Timothy B. Spahr             (C) Copyright 2000 MPC           M.P.E.C. 2000-W60

Read MPEC 2000-W59 Read MPEC 2000-W61


Our Web policy. Index to the CBAT/MPC/ICQ pages.


Valid HTML 4.01!